Regional Weather Roundup
Issued by NWS

Home | Current Version | Previous Version | Graphics & Text | Print | Product List | Glossary On
Versions: 1 2 3 4 5 6 7 8 9 10 11 12 13 14 15 16 17 18 19 20 21 22 23 24 25 26 27 28 29 30 31 32 33 34 35 36 37 38 39 40 41 42 43 44 45 46 47 48 49 50
000
ASUS43 KDMX 070507
RWRIA

WEATHER ROUNDUP FOR IOWA
NATIONAL WEATHER SERVICE DES MOINES IA
1200 AM CDT TUE JUL 07 2015

NOTE: "FAIR" INDICATES FEW OR NO CLOUDS BELOW 12,000 FEET WITH NO
SIGNIFICANT WEATHER AND/OR OBSTRUCTIONS TO VISIBILITY.

* - THESE STATIONS ARE NOT NWS STATIONS...THUS NOT UNDER NWS
QUALITY CONTROL.  THEY ALSO DO NOT REPORT WEATHER SUCH
AS PRECIPITATION OR FOG.

IAZ001>003-012>014-020>022-031>034-043>046-070600-
   NORTHWEST IOWA

CITY           SKY/WX    TMP DP  RH WIND       PRES   REMARKS
CARROLL *      MOCLDY    63  57  82 N12       30.05R
CHEROKEE *     CLEAR     59  54  82 N7        30.10R
DENISON *      PTCLDY    61  55  82 N12       30.07R
LE MARS *      CLEAR     57  54  88 N3        30.13R
ORANGE CITY *  CLEAR     57  52  82 N5        30.12R
SHELDON *      PTCLDY    55  55 100 N7        30.10R
SIOUX CITY     CLEAR     63  53  70 N6        30.12R
SPENCER        CLEAR     57  49  74 N6        30.10R
STORM LAKE *   CLEAR     59  52  77 N12       30.09S
$$

IAZ055>058-069>071-079>083-090>094-070600-
   SOUTHWEST IOWA

CITY           SKY/WX    TMP DP  RH WIND       PRES   REMARKS
ATLANTIC *     CLOUDY    64  61  88 N13       30.04R FOG
AUDUBON *      CLEAR     63  57  82 N14       30.07R
CLARINDA *     CLOUDY    68  66  94 N9G15     30.02R FOG
COUNCIL BLFS * PTCLDY    66  59  77 N14G21    30.06R HAZE
CRESTON *      CLOUDY    66  59  77 N17G26    30.00R HAZE
HARLAN  *      CLEAR     64  61  88 N14G25    30.09R
LAMONI         CLOUDY    67  62  84 N12       29.98R HAZE
RED OAK *      CLOUDY    64  63  94 N9        30.03R FOG
SHENANDOAH *   CLOUDY    66  61  82 N6G12     30.03R HAZE
$$

IAZ047>049-059>061-072>074-084-070600-
   CENTRAL IOWA

CITY           SKY/WX    TMP DP  RH WIND       PRES   REMARKS
AMES           CLOUDY    63  59  87 N7        30.00R FOG
ANKENY *       CLEAR     64  61  88 N5        29.99R FOG
CHARITON *     CLOUDY    66  59  77 N15       29.97R HAZE
DES MOINES     CLOUDY    67  59  75 N7        29.99R HAZE
GRINNELL*      CLOUDY    63  57  82 N9        29.98R HAZE
KNOXVILLE *    CLOUDY    68  57  68 N12G25    29.96R HAZE
MARSHALLTOWN   CLOUDY    63  58  83 N10       29.97S HAZE
PELLA *        CLOUDY    66  62  87 N8        29.98R FOG
PERRY *        MOCLDY    64  61  88 NW9       30.03R FOG
$$

IAZ004>006-015-016-023>025-035-036-070600-
   NORTH CENTRAL IOWA

CITY           SKY/WX    TMP DP  RH WIND       PRES   REMARKS
ALGONA *       CLEAR     59  54  82 N9        30.06R
CLARION *      CLEAR     63  54  72 N10G18    30.03R
ESTHERVILLE    CLEAR     54  49  83 N8        30.08R
FORT DODGE *   MOCLDY    63  52  67 N7        30.05R
MASON CITY     PTCLDY    61  55  81 NW12      30.03S
FOREST CITY *  CLEAR     59  50  72 NW14      30.03S
IOWA FALLS *     N/A     61  59  94 NW5       30.01S FOG
$$

IAZ007>011-017>019-026>030-037>042-050>054-066-070600-
   NORTHEAST IOWA

CITY           SKY/WX    TMP DP  RH WIND       PRES   REMARKS
CEDAR RAPIDS   CLOUDY    66  60  81 N14       29.92S HAZE
CHARLES CITY * CLEAR     59  59 100 N6        29.99F FOG
CLINTON *      CLOUDY    66  63  88 N17       29.90R
DECORAH *        N/A    N/A N/A N/A MISG        N/A
DUBUQUE        CLOUDY    64  58  80 N20G25    29.91S HAZE
MONTICELLO *   MOCLDY    64  61  88 N7G14     29.92S
OELWEIN *        N/A     61  59  94 N9        29.97S FOG
WATERLOO       CLOUDY    62  57  83 N9        29.96S HAZE
$$

IAZ064-065-067-068-078-070600-
   EAST CENTRAL IOWA

CITY           SKY/WX    TMP DP  RH WIND       PRES   REMARKS
DAVENPORT      LGT RAIN  66  64  93 N15G25    29.88R
IOWA CITY      CLOUDY    68  60  75 N16G25    29.91S
MT. PLEASANT * CLOUDY    72  68  88 N13G23    29.89R
MUSCATINE *    HVY RAIN  68  66  94 N17       29.89R
QUAD CITIES    LGT RAIN  72  69  90 NW15      29.85F
$$

IAZ062-063-075>077-085>089-095>099-070600-
   SOUTHEAST IOWA

CITY           SKY/WX    TMP DP  RH WIND       PRES   REMARKS
BURLINGTON     CLOUDY    72  72 100 S3        29.87R
FAIRFIELD *    CLOUDY    66  64  94 N10       29.92R FOG
FORT MADISON * CLOUDY    72  72 100 CALM      29.89R
KEOKUK *       CLOUDY    72  72 100 CALM      29.88R
OSKALOOSA *    CLOUDY    66  59  77 N12G18    29.95R HAZE
CENTERVILLE *  CLOUDY    66  63  88 N13       29.96R
OTTUMWA        CLOUDY    66  61  84 N15G24    29.92R HAZE
WASHINGTON *   CLOUDY    66  64  94 N13       29.91S
$$

ABBREVIATIONS USED IN REMARKS
   TC - TEMPERATURES IN CELSIUS
  WCI - WIND CHILL INDEX
   HX - HEAT INDEX
  VSB - VISIBILITY
$$



USA.gov is the U.S. government's official web portal to all federal, state and local government web resources and services.